Location: Unspecified
(42.3650°N, 71.1030°W)
Time: 09:56:49
(UTC+00:00)

NANOSAT C BR1 - Visible Passes

Search period start: 24 July 2024 00:00
Search period end: 03 August 2024 00:00
Orbit: 548 x 559 km, 98.1° (Epoch: 23 July)

Date Brightness Start Highest point End Pass type
(mag) Time Alt. Az. Time Alt. Az. Time Alt. Az.
24 Jul ? 08:39:20 10° NNE 08:43:13 50° E 08:47:05 10° S visible
25 Jul ? 08:36:13 10° NNE 08:40:03 45° E 08:43:52 10° S visible
26 Jul ? 08:33:04 10° NNE 08:36:51 41° E 08:40:37 10° S visible
27 Jul ? 08:29:54 10° NNE 08:33:37 38° E 08:37:20 10° SSE visible
28 Jul ? 08:26:42 10° NNE 08:30:22 34° E 08:34:00 10° SSE visible
29 Jul ? 08:23:30 10° NNE 08:27:05 31° E 08:30:38 10° SSE visible
30 Jul ? 08:20:16 10° NE 08:23:45 29° E 08:27:13 10° SSE visible
31 Jul ? 08:17:01 10° NE 08:20:24 26° E 08:23:46 10° SSE visible
01 Aug ? 08:13:45 10° NE 08:17:01 24° E 08:20:15 10° SSE visible
02 Aug ? 08:10:28 10° NE 08:13:36 22° E 08:16:42 10° SSE visible
